This is the latest recevied weather packets stored in our database for station/object W3AJR. If no packets are shown the sender has not sent any weather packets the latest 10 day(s).
| Time | Temp. | Humidity | Pressure | Rain* | Wind** | Luminosity | Snow |
|---|---|---|---|---|---|---|---|
| 1777315597 | 20° C | 47% | 1022.8 hPa | 0 mm | - | 606 W/m² | - |
| 1777315295 | 20° C | 46% | 1022.9 hPa | 0 mm | - | 601 W/m² | - |
| 1777314993 | 20.56° C | 47% | 1023.1 hPa | 0 mm | - | 667 W/m² | - |
| 1777314687 | 20.56° C | 50% | 1023.2 hPa | 0 mm | - | 698 W/m² | - |
| 1777314385 | 20.56° C | 46% | 1023.1 hPa | 0 mm | - | 697 W/m² | - |
| 1777314082 | 20° C | 45% | 1023.4 hPa | 0 mm | - | 636 W/m² | - |
| 1777313780 | 20.56° C | 44% | 1023.3 hPa | 0 mm | - | 633 W/m² | - |
| 1777313477 | 20° C | 49% | 1023.2 hPa | 0 mm | - | 588 W/m² | - |
| 1777313174 | 19.44° C | 47% | 1023.3 hPa | 0 mm | - | 793 W/m² | - |
| 1777312870 | 19.44° C | 49% | 1023.3 hPa | 0 mm | - | 754 W/m² | - |
| 1777312567 | 19.44° C | 50% | 1023.3 hPa | 0 mm | - | 517 W/m² | - |
| 1777312264 | 19.44° C | 48% | 1023.5 hPa | 0 mm | - | 632 W/m² | - |
| 1777311961 | 19.44° C | 49% | 1023.2 hPa | 0 mm | - | 711 W/m² | - |
| 1777311658 | 19.44° C | 51% | 1023.4 hPa | 0 mm | - | 741 W/m² | - |
| 1777311355 | 18.33° C | 53% | 1023.5 hPa | 0 mm | - | 537 W/m² | - |
| 1777311052 | 19.44° C | 51% | 1023.5 hPa | 0 mm | - | 128 W/m² | - |
| 1777310750 | 19.44° C | 49% | 1023.8 hPa | 0 mm | - | 766 W/m² | - |
| 1777310448 | 18.89° C | 49% | 1023.7 hPa | 0 mm | - | 747 W/m² | - |
| 1777310144 | 18.89° C | 51% | 1023.6 hPa | 0 mm | - | 637 W/m² | - |
| 1777309842 | 18.89° C | 51% | 1023.7 hPa | 0 mm | - | 540 W/m² | - |
| 1777309540 | 18.33° C | 51% | 1023.8 hPa | 0 mm | - | 544 W/m² | - |
| 1777309237 | 18.89° C | 53% | 1023.6 hPa | 0 mm | - | 726 W/m² | - |
| 1777308935 | 18.89° C | 48% | 1024 hPa | 0 mm | - | 790 W/m² | - |
| 1777308631 | 18.89° C | 50% | 1023.9 hPa | 0 mm | - | 783 W/m² | - |
| 1777308327 | 18.33° C | 52% | 1024.1 hPa | 0 mm | - | 734 W/m² | - |
* Rain latest hour (hover to see other rain measurements)
** Current wind speed in m/s (hover to see current wind gust speed)